| time (UTC) | temp F | wind direction | speed MPH | gust MPH | rain 1hr in | rain 24hr in | rain mn in | humidity % | barometer mb |
| 20260831060534 | 64 | 197 | 3.0 | 9.0 | 0.00 | 0.04 | 0.00 | 87 | 1014.7 |
| 20260831060028 | 64 | 282 | 1.0 | 9.0 | 0.00 | 0.04 | 0.00 | 87 | 1014.7 |
| 20260831055606 | 63 | 223 | 1.0 | 7.0 | 0.00 | 0.04 | 0.00 | 87 | 1014.5 |
| 20260831055040 | 63 | 268 | 2.0 | 10.0 | 0.00 | 0.04 | 0.00 | 87 | 1014.4 |
| 20260831054533 | 63 | 226 | 3.0 | 10.0 | 0.00 | 0.04 | 0.00 | 88 | 1014.3 |
| 20260831054027 | 63 | 232 | 3.0 | 7.0 | 0.00 | 0.04 | 0.00 | 88 | 1014.4 |
| 20260831053547 | 63 | 236 | 1.0 | 11.0 | 0.00 | 0.04 | 0.00 | 88 | 1014.4 |
| 20260831053055 | 63 | 239 | 2.0 | 11.0 | 0.00 | 0.04 | 0.00 | 88 | 1014.4 |
| 20260831052529 | 63 | 217 | 2.0 | 7.0 | 0.00 | 0.04 | 0.00 | 88 | 1014.4 |
| 20260831052045 | 63 | 222 | 2.0 | 9.0 | 0.00 | 0.04 | 0.00 | 88 | 1014.4 |
| 20260831051540 | 63 | 232 | 2.0 | 11.0 | 0.00 | 0.04 | 0.00 | 88 | 1014.2 |
| 20260831051036 | 63 | 210 | 2.0 | 11.0 | 0.00 | 0.04 | 0.00 | 88 | 1014.2 |
| 20260831050552 | 63 | 238 | 3.0 | 11.0 | 0.00 | 0.04 | 0.00 | 88 | 1014.2 |
| 20260831050045 | 63 | 224 | 2.0 | 10.0 | 0.00 | 0.04 | 0.00 | 88 | 1014.2 |
| 20260831045542 | 63 | 261 | 4.0 | 10.0 | 0.00 | 0.04 | 0.00 | 88 | 1014.3 |
| 20260831045033 | 63 | 240 | 5.0 | 10.0 | 0.00 | 0.04 | 0.00 | 89 | 1014.2 |
| 20260831044546 | 63 | 250 | 2.0 | 10.0 | 0.00 | 0.04 | 0.00 | 89 | 1014.3 |
| 20260831044039 | 63 | 155 | 1.0 | 8.0 | 0.00 | 0.04 | 0.00 | 89 | 1014.2 |
| 20260831043538 | 63 | 213 | 2.0 | 8.0 | 0.00 | 0.04 | 0.00 | 89 | 1014.1 |
| 20260831043030 | 63 | 235 | 2.0 | 7.0 | 0.00 | 0.04 | 0.00 | 89 | 1014.2 |
| 20260831042541 | 63 | 225 | 2.0 | 9.0 | 0.00 | 0.04 | 0.00 | 89 | 1014.1 |
| 20260831042033 | 63 | 221 | 3.0 | 9.0 | 0.00 | 0.04 | 0.00 | 89 | 1014.1 |
| 20260831041545 | 63 | 215 | 3.0 | 9.0 | 0.00 | 0.04 | 0.00 | 89 | 1014.1 |
| 20260831041059 | 63 | 218 | 2.0 | 9.0 | 0.00 | 0.04 | 0.00 | 89 | 1014.2 |
| 20260831040538 | 63 | 215 | 2.0 | 9.0 | 0.00 | 0.04 | 0.00 | 89 | 1014.1 |
| 20260831040106 | 63 | 226 | 2.0 | 7.0 | 0.00 | 0.04 | 0.00 | 89 | 1014.2 |
| 20260831035536 | 63 | 209 | 3.0 | 8.0 | 0.00 | 0.04 | 0.00 | 89 | 1014.1 |
| 20260831035030 | 63 | 225 | 2.0 | 7.0 | 0.00 | 0.04 | 0.00 | 89 | 1014.2 |
| 20260831034539 | 63 | 190 | 3.0 | 7.0 | 0.00 | 0.04 | 0.00 | 89 | 1014.2 |
| 20260831034032 | 64 | 217 | 3.0 | 10.0 | 0.00 | 0.04 | 0.00 | 89 | 1014.2 |
| 20260831033535 | 64 | 286 | 1.0 | 10.0 | 0.00 | 0.04 | 0.00 | 89 | 1014.2 |
| 20260831033027 | 64 | 211 | 2.0 | 10.0 | 0.00 | 0.04 | 0.00 | 89 | 1014.2 |
| 20260831032539 | 64 | 240 | 2.0 | 10.0 | 0.00 | 0.04 | 0.00 | 89 | 1014.1 |
| 20260831032032 | 64 | 222 | 4.0 | 10.0 | 0.00 | 0.04 | 0.00 | 89 | 1014.0 |
| 20260831031545 | 64 | 234 | 2.0 | 11.0 | 0.00 | 0.04 | 0.00 | 89 | 1014.1 |
| 20260831031035 | 64 | 275 | 3.0 | 10.0 | 0.00 | 0.04 | 0.00 | 89 | 1014.2 |
| 20260831030530 | 64 | 229 | 3.0 | 10.0 | 0.00 | 0.04 | 0.00 | 89 | 1014.1 |
| 20260831030037 | 64 | 215 | 3.0 | 10.0 | 0.00 | 0.04 | 0.00 | 89 | 1013.9 |
| 20260831025530 | 63 | 196 | 3.0 | 11.0 | 0.00 | 0.04 | 0.00 | 89 | 1014.0 |
| 20260831025046 | 63 | 196 | 3.0 | 9.0 | 0.00 | 0.04 | 0.00 | 89 | 1014.0 |
| 20260831024541 | 63 | 225 | 2.0 | 9.0 | 0.00 | 0.04 | 0.00 | 89 | 1014.0 |
| 20260831024046 | 63 | 221 | 1.0 | 10.0 | 0.00 | 0.04 | 0.00 | 89 | 1013.9 |
| 20260831023539 | 63 | 293 | 3.0 | 10.0 | 0.00 | 0.04 | 0.00 | 90 | 1013.8 |
| 20260831023032 | 63 | 221 | 3.0 | 17.0 | 0.00 | 0.04 | 0.00 | 89 | 1013.8 |
| 20260831022544 | 63 | 213 | 5.0 | 17.0 | 0.00 | 0.04 | 0.00 | 90 | 1013.7 |
| 20260831022038 | 63 | 219 | 4.0 | 12.0 | 0.00 | 0.04 | 0.00 | 90 | 1013.7 |
| 20260831021536 | 63 | 231 | 4.0 | 12.0 | 0.00 | 0.04 | 0.00 | 91 | 1013.7 |
| 20260831021033 | 63 | 205 | 3.0 | 13.0 | 0.00 | 0.04 | 0.00 | 91 | 1013.7 |
| 20260831020541 | 63 | 223 | 3.0 | 13.0 | 0.00 | 0.04 | 0.00 | 91 | 1013.8 |
| 20260831020034 | 63 | 221 | 2.0 | 10.0 | 0.00 | 0.04 | 0.00 | 91 | 1013.8 |
| 20260831015554 | 63 | 200 | 3.0 | 8.0 | 0.00 | 0.04 | 0.00 | 91 | 1013.7 |
| 20260831015046 | 63 | 225 | 2.0 | 9.0 | 0.00 | 0.04 | 0.00 | 91 | 1013.7 |
| 20260831014539 | 63 | 248 | 3.0 | 9.0 | 0.00 | 0.04 | 0.00 | 91 | 1013.7 |
| 20260831014107 | 63 | 223 | 3.0 | 9.0 | 0.00 | 0.04 | 0.00 | 91 | 1013.7 |
| 20260831013600 | 63 | 215 | 3.0 | 10.0 | 0.00 | 0.04 | 0.00 | 91 | 1013.8 |
| 20260831013027 | 63 | 207 | 3.0 | 10.0 | 0.00 | 0.04 | 0.00 | 91 | 1013.7 |
| 20260831012541 | 63 | 209 | 2.0 | 9.0 | 0.00 | 0.04 | 0.00 | 91 | 1013.7 |
| 20260831012034 | 63 | 211 | 4.0 | 9.0 | 0.00 | 0.04 | 0.00 | 91 | 1013.7 |
| 20260831011534 | 63 | 223 | 5.0 | 10.0 | 0.00 | 0.04 | 0.00 | 91 | 1013.8 |
| 20260831011032 | 63 | 196 | 3.0 | 10.0 | 0.00 | 0.04 | 0.00 | 91 | 1013.8 |
| 20260831010539 | 63 | 181 | 5.0 | 9.0 | 0.00 | 0.04 | 0.00 | 91 | 1013.8 |
| 20260831010032 | 63 | 229 | 5.0 | 8.0 | 0.00 | 0.04 | 0.00 | 91 | 1013.8 |
| 20260831005546 | 63 | 218 | 4.0 | 9.0 | 0.00 | 0.04 | 0.00 | 91 | 1013.8 |
| 20260831005040 | 63 | 201 | 2.0 | 8.0 | 0.00 | 0.04 | 0.00 | 91 | 1013.8 |
| 20260831004536 | 63 | 214 | 5.0 | 10.0 | 0.00 | 0.04 | 0.00 | 91 | 1013.8 |
| 20260831004054 | 63 | 209 | 5.0 | 12.0 | 0.00 | 0.04 | 0.00 | 91 | 1013.7 |
| 20260831003548 | 63 | 203 | 3.0 | 15.0 | 0.00 | 0.04 | 0.00 | 91 | 1013.7 |
| 20260831003040 | 63 | 202 | 5.0 | 15.0 | 0.00 | 0.04 | 0.00 | 91 | 1013.6 |
| 20260831002557 | 63 | 265 | 2.0 | 12.0 | 0.00 | 0.04 | 0.00 | 91 | 1013.8 |
| 20260831002030 | 63 | 206 | 3.0 | 10.0 | 0.00 | 0.04 | 0.00 | 91 | 1013.9 |
| 20260831001543 | 63 | 221 | 4.0 | 10.0 | 0.00 | 0.04 | 0.00 | 91 | 1013.8 |
| 20260831001037 | 63 | 209 | 4.0 | 9.0 | 0.00 | 0.04 | 0.00 | 91 | 1013.7 |
| 20260831000549 | 63 | 249 | 2.0 | 10.0 | 0.00 | 0.04 | 0.00 | 91 | 1013.8 |
| 20260831000049 | 63 | 216 | 5.0 | 10.0 | 0.00 | 0.04 | 0.01 | 91 | 1013.7 |
| 20260830235557 | 63 | 212 | 5.0 | 9.0 | 0.00 | 0.04 | 0.01 | 91 | 1013.7 |
| 20260830235027 | 63 | 228 | 4.0 | 10.0 | 0.00 | 0.04 | 0.01 | 91 | 1013.7 |
| 20260830234543 | 63 | 217 | 3.0 | 10.0 | 0.00 | 0.04 | 0.01 | 91 | 1013.7 |
| 20260830234034 | 63 | 234 | 3.0 | 8.0 | 0.00 | 0.04 | 0.01 | 91 | 1013.7 |
| 20260830233550 | 63 | 201 | 4.0 | 9.0 | 0.00 | 0.04 | 0.01 | 91 | 1013.7 |
| 20260830233050 | 63 | 232 | 2.0 | 9.0 | 0.00 | 0.04 | 0.01 | 91 | 1013.7 |
| 20260830232525 | 63 | 215 | 2.0 | 8.0 | 0.00 | 0.04 | 0.01 | 91 | 1013.7 |
| 20260830232042 | 63 | 236 | 2.0 | 9.0 | 0.00 | 0.04 | 0.01 | 91 | 1013.7 |
| 20260830231600 | 63 | 236 | 4.0 | 9.0 | 0.00 | 0.04 | 0.01 | 91 | 1013.7 |
| 20260830231030 | 63 | 209 | 3.0 | 10.0 | 0.00 | 0.04 | 0.01 | 91 | 1013.7 |
| 20260830230541 | 63 | 240 | 2.0 | 9.0 | 0.00 | 0.04 | 0.01 | 91 | 1013.7 |
| 20260830230025 | 63 | 217 | 3.0 | 8.0 | 0.00 | 0.04 | 0.01 | 91 | 1013.6 |
| 20260830225542 | 63 | 188 | 2.0 | 8.0 | 0.00 | 0.04 | 0.01 | 91 | 1013.7 |
| 20260830225036 | 63 | 240 | 4.0 | 9.0 | 0.00 | 0.04 | 0.01 | 91 | 1013.6 |
| 20260830224533 | 63 | 217 | 4.0 | 10.0 | 0.00 | 0.04 | 0.01 | 90 | 1013.6 |
| 20260830224045 | 63 | 237 | 5.0 | 10.0 | 0.00 | 0.04 | 0.01 | 90 | 1013.6 |
| 20260830223540 | 63 | 236 | 4.0 | 13.0 | 0.00 | 0.04 | 0.01 | 90 | 1013.5 |
| 20260830223031 | 63 | 227 | 5.0 | 13.0 | 0.00 | 0.04 | 0.01 | 90 | 1013.5 |
| 20260830222542 | 63 | 267 | 3.0 | 10.0 | 0.00 | 0.04 | 0.01 | 90 | 1013.4 |
| 20260830222035 | 63 | 217 | 4.0 | 9.0 | 0.00 | 0.04 | 0.01 | 90 | 1013.4 |
| 20260830221548 | 63 | 217 | 5.0 | 9.0 | 0.00 | 0.04 | 0.01 | 90 | 1013.4 |
| 20260830221041 | 63 | 229 | 5.0 | 10.0 | 0.00 | 0.04 | 0.01 | 90 | 1013.3 |
| 20260830220557 | 63 | 204 | 3.0 | 9.0 | 0.00 | 0.04 | 0.01 | 90 | 1013.3 |
| 20260830220033 | 63 | 293 | 2.0 | 10.0 | 0.00 | 0.04 | 0.01 | 90 | 1013.3 |
| 20260830215529 | 63 | 207 | 1.0 | 9.0 | 0.00 | 0.04 | 0.01 | 89 | 1013.2 |
| 20260830215045 | 63 | 232 | 3.0 | 9.0 | 0.00 | 0.04 | 0.01 | 89 | 1013.2 |
| 20260830214542 | 63 | 210 | 3.0 | 9.0 | 0.00 | 0.04 | 0.01 | 90 | 1013.1 |
| 20260830214035 | 63 | 226 | 3.0 | 9.0 | 0.00 | 0.04 | 0.01 | 89 | 1013.1 |
| 20260830213531 | 64 | 242 | 5.0 | 10.0 | 0.00 | 0.04 | 0.01 | 89 | 1013.1 |
| 20260830213027 | 64 | 214 | 4.0 | 10.0 | 0.00 | 0.04 | 0.01 | 89 | 1013.1 |
| 20260830212541 | 64 | 222 | 4.0 | 9.0 | 0.00 | 0.04 | 0.01 | 89 | 1013.0 |
| 20260830212033 | 64 | 219 | 5.0 | 11.0 | 0.00 | 0.04 | 0.01 | 88 | 1013.0 |
| 20260830211541 | 64 | 216 | 6.0 | 11.0 | 0.00 | 0.04 | 0.01 | 88 | 1012.9 |
| 20260830211045 | 64 | 253 | 4.0 | 10.0 | 0.00 | 0.04 | 0.01 | 88 | 1012.9 |
| 20260830210540 | 64 | 227 | 2.0 | 8.0 | 0.00 | 0.04 | 0.01 | 88 | 1012.9 |
| 20260830210031 | 64 | 198 | 3.0 | 10.0 | 0.00 | 0.04 | 0.01 | 88 | 1012.9 |
| 20260830205531 | 64 | 228 | 4.0 | 10.0 | 0.00 | 0.04 | 0.01 | 87 | 1012.8 |
| 20260830205025 | 64 | 209 | 2.0 | 8.0 | 0.00 | 0.04 | 0.01 | 87 | 1012.8 |
| 20260830204541 | 65 | 223 | 2.0 | 8.0 | 0.00 | 0.04 | 0.01 | 87 | 1012.8 |
| 20260830204043 | 65 | 210 | 2.0 | 9.0 | 0.00 | 0.04 | 0.01 | 86 | 1012.7 |
| 20260830203535 | 65 | 215 | 2.0 | 9.0 | 0.00 | 0.04 | 0.01 | 86 | 1012.7 |
| 20260830203032 | 65 | 241 | 3.0 | 7.0 | 0.00 | 0.04 | 0.01 | 86 | 1012.6 |
| 20260830202544 | 65 | 214 | 2.0 | 9.0 | 0.00 | 0.04 | 0.01 | 85 | 1012.6 |
| 20260830202038 | 65 | 223 | 5.0 | 9.0 | 0.00 | 0.04 | 0.01 | 85 | 1012.5 |
| 20260830201531 | 65 | 219 | 2.0 | 8.0 | 0.00 | 0.04 | 0.01 | 84 | 1012.6 |
| 20260830201040 | 66 | 206 | 3.0 | 8.0 | 0.00 | 0.04 | 0.01 | 84 | 1012.6 |
| 20260830200556 | 66 | 213 | 2.0 | 10.0 | 0.00 | 0.04 | 0.01 | 84 | 1012.6 |
| 20260830200044 | 66 | 232 | 3.0 | 10.0 | 0.00 | 0.04 | 0.01 | 83 | 1012.6 |
| 20260830195603 | 66 | 232 | 3.0 | 9.0 | 0.00 | 0.04 | 0.01 | 83 | 1012.7 |
| 20260830195024 | 67 | 221 | 4.0 | 11.0 | 0.00 | 0.04 | 0.01 | 83 | 1012.5 |
| 20260830194605 | 67 | 210 | 5.0 | 11.0 | 0.00 | 0.04 | 0.01 | 83 | 1012.6 |
| 20260830194037 | 67 | 213 | 3.0 | 7.0 | 0.00 | 0.04 | 0.01 | 83 | 1012.5 |
| 20260830193545 | 67 | 223 | 3.0 | 7.0 | 0.00 | 0.04 | 0.01 | 82 | 1012.5 |
| 20260830193042 | 67 | 232 | 2.0 | 11.0 | 0.00 | 0.04 | 0.01 | 82 | 1012.5 |
| 20260830192536 | 67 | 227 | 4.0 | 11.0 | 0.00 | 0.04 | 0.01 | 82 | 1012.4 |
| 20260830192027 | 68 | 211 | 3.0 | 12.0 | 0.00 | 0.04 | 0.01 | 82 | 1012.4 |
| 20260830191544 | 68 | 243 | 4.0 | 12.0 | 0.00 | 0.04 | 0.01 | 82 | 1012.3 |
| 20260830191037 | 68 | 217 | 5.0 | 11.0 | 0.00 | 0.04 | 0.01 | 83 | 1012.2 |
| 20260830190549 | 68 | 209 | 2.0 | 9.0 | 0.00 | 0.04 | 0.01 | 84 | 1012.3 |
| 20260830190034 | 68 | 220 | 3.0 | 10.0 | 0.00 | 0.04 | 0.01 | 85 | 1012.2 |
| 20260830185535 | 68 | 202 | 5.0 | 10.0 | 0.00 | 0.04 | 0.01 | 86 | 1012.2 |
| 20260830185033 | 68 | 238 | 3.0 | 9.0 | 0.00 | 0.04 | 0.01 | 86 | 1012.1 |
| 20260830184545 | 68 | 227 | 3.0 | 9.0 | 0.00 | 0.04 | 0.01 | 86 | 1012.0 |
| 20260830184058 | 68 | 215 | 5.0 | 9.0 | 0.00 | 0.04 | 0.01 | 87 | 1012.0 |
| 20260830183532 | 68 | 217 | 3.0 | 9.0 | 0.00 | 0.04 | 0.01 | 86 | 1012.0 |
| 20260830183032 | 68 | 234 | 4.0 | 9.0 | 0.00 | 0.04 | 0.01 | 86 | 1012.0 |
| 20260830182540 | 69 | 231 | 1.0 | 9.0 | 0.00 | 0.04 | 0.01 | 86 | 1012.0 |
| 20260830182055 | 69 | 223 | 4.0 | 9.0 | 0.00 | 0.04 | 0.01 | 86 | 1011.9 |
| 20260830181528 | 69 | 186 | 3.0 | 6.0 | 0.00 | 0.04 | 0.01 | 86 | 1012.0 |
| 20260830181030 | 69 | 228 | 2.0 | 9.0 | 0.04 | 0.04 | 0.01 | 86 | 1012.0 |
| 20260830180545 | 69 | 209 | 2.0 | 9.0 | 0.04 | 0.04 | 0.01 | 86 | 1012.0 |
| 20260830180037 | 69 | 243 | 1.0 | 6.0 | 0.04 | 0.04 | 0.01 | 85 | 1011.7 |
| 20260830175529 | 69 | 194 | 2.0 | 7.0 | 0.04 | 0.04 | 0.01 | 85 | 1011.9 |
| 20260830175054 | 69 | 189 | 2.0 | 8.0 | 0.04 | 0.04 | 0.01 | 85 | 1011.8 |
| 20260830174530 | 70 | 183 | 1.0 | 8.0 | 0.04 | 0.04 | 0.01 | 85 | 1011.8 |
| 20260830174044 | 69 | 197 | 2.0 | 9.0 | 0.04 | 0.04 | 0.01 | 85 | 1011.9 |
| 20260830173544 | 69 | 230 | 3.0 | 9.0 | 0.04 | 0.04 | 0.01 | 84 | 1011.8 |
| 20260830173035 | 70 | 217 | 2.0 | 6.0 | 0.04 | 0.04 | 0.01 | 84 | 1011.7 |
| 20260830172531 | 70 | 188 | 2.0 | 6.0 | 0.04 | 0.04 | 0.01 | 84 | 1011.7 |
| 20260830172026 | 70 | 195 | 2.0 | 6.0 | 0.04 | 0.04 | 0.01 | 84 | 1011.7 |
| 20260830171540 | 70 | 228 | 1.0 | 5.0 | 0.04 | 0.04 | 0.01 | 83 | 1011.7 |
| 20260830171026 | 70 | 225 | 1.0 | 8.0 | 0.00 | 0.00 | 0.00 | 82 | 1011.6 |
| 20260830170538 | 70 | 220 | 2.0 | 8.0 | 0.00 | 0.00 | 0.00 | 82 | 1011.6 |
| 20260830170025 | 70 | 213 | 1.0 | 4.0 | 0.00 | 0.00 | 0.00 | 81 | 1011.6 |
| 20260830165541 | 71 | 231 | 1.0 | 8.0 | 0.00 | 0.00 | 0.00 | 81 | 1011.7 |
| 20260830165032 | 71 | 214 | 3.0 | 9.0 | 0.00 | 0.00 | 0.00 | 80 | 1011.8 |
| 20260830164551 | 71 | 206 | 4.0 | 9.0 | 0.00 | 0.00 | 0.00 | 80 | 1011.7 |
| 20260830164037 | 72 | 220 | 3.0 | 11.0 | 0.00 | 0.00 | 0.00 | 78 | 1011.7 |
| 20260830163548 | 73 | 209 | 3.0 | 11.0 | 0.00 | 0.00 | 0.00 | 75 | 1011.6 |
| 20260830163038 | 74 | 217 | 4.0 | 18.0 | 0.00 | 0.00 | 0.00 | 70 | 1011.6 |
| 20260830162548 | 74 | 262 | 5.0 | 18.0 | 0.00 | 0.00 | 0.00 | 68 | 1011.5 |
| 20260830162042 | 75 | 192 | 3.0 | 10.0 | 0.00 | 0.00 | 0.00 | 67 | 1011.6 |
| 20260830161533 | 75 | 193 | 3.0 | 10.0 | 0.00 | 0.00 | 0.00 | 66 | 1011.4 |
| 20260830161040 | 75 | 223 | 5.0 | 10.0 | 0.00 | 0.00 | 0.00 | 66 | 1011.6 |
| 20260830160619 | 75 | 223 | 4.0 | 10.0 | 0.00 | 0.00 | 0.00 | 65 | 1011.7 |
| 20260830160045 | 75 | 201 | 4.0 | 14.0 | 0.00 | 0.00 | 0.00 | 65 | 1011.6 |
| 20260830155537 | 75 | 215 | 2.0 | 14.0 | 0.00 | 0.00 | 0.00 | 65 | 1011.5 |
| 20260830155030 | 75 | 213 | 2.0 | 8.0 | 0.00 | 0.00 | 0.00 | 66 | 1011.7 |
| 20260830154543 | 76 | 242 | 1.0 | 7.0 | 0.00 | 0.00 | 0.00 | 64 | 1011.7 |
| 20260830154037 | 76 | 257 | 2.0 | 9.0 | 0.00 | 0.00 | 0.00 | 64 | 1011.8 |
| 20260830153528 | 76 | 294 | 1.0 | 5.0 | 0.00 | 0.00 | 0.00 | 60 | 1011.7 |
| 20260830153037 | 77 | 227 | 1.0 | 9.0 | 0.00 | 0.00 | 0.00 | 59 | 1011.7 |
| 20260830152536 | 77 | 245 | 2.0 | 9.0 | 0.00 | 0.00 | 0.00 | 59 | 1011.7 |
| 20260830152036 | 77 | 292 | 2.0 | 8.0 | 0.00 | 0.00 | 0.00 | 58 | 1011.7 |
| 20260830151547 | 77 | 296 | 2.0 | 8.0 | 0.00 | 0.00 | 0.00 | 58 | 1011.7 |
| 20260830151039 | 77 | 271 | 2.0 | 8.0 | 0.00 | 0.00 | 0.00 | 58 | 1011.8 |
| 20260830150528 | 78 | 221 | 3.0 | 10.0 | 0.00 | 0.00 | 0.00 | 58 | 1011.9 |
| 20260830150044 | 78 | 237 | 4.0 | 10.0 | 0.00 | 0.28 | 0.00 | 57 | 1011.9 |
| 20260830145538 | 78 | 229 | 1.0 | 10.0 | 0.00 | 0.28 | 0.00 | 57 | 1011.9 |
| 20260830145106 | 79 | 219 | 4.0 | 10.0 | 0.00 | 0.28 | 0.00 | 55 | 1011.8 |
| 20260830144534 | 79 | 273 | 2.0 | 9.0 | 0.00 | 0.28 | 0.00 | 55 | 1011.9 |
| 20260830144028 | 79 | 214 | 3.0 | 9.0 | 0.00 | 0.28 | 0.00 | 55 | 1011.9 |
| 20260830143603 | 79 | 205 | 3.0 | 7.0 | 0.00 | 0.28 | 0.00 | 54 | 1011.8 |
| 20260830143028 | 80 | 232 | 3.0 | 7.0 | 0.00 | 0.28 | 0.00 | 54 | 1011.9 |
| 20260830142538 | 79 | 218 | 2.0 | 8.0 | 0.00 | 0.28 | 0.00 | 55 | 1012.0 |
| 20260830142052 | 79 | 199 | 2.0 | 9.0 | 0.00 | 0.28 | 0.00 | 54 | 1012.1 |
| 20260830141550 | 79 | 227 | 4.0 | 9.0 | 0.00 | 0.28 | 0.00 | 54 | 1012.2 |
| 20260830141039 | 79 | 252 | 1.0 | 9.0 | 0.00 | 0.28 | 0.00 | 54 | 1012.2 |
| 20260830140537 | 79 | 243 | 2.0 | 9.0 | 0.00 | 0.28 | 0.00 | 55 | 1012.2 |
| 20260830140027 | 78 | 300 | 1.0 | 8.0 | 0.00 | 0.28 | 0.00 | 56 | 1012.3 |
| 20260830135544 | 78 | 270 | 1.0 | 8.0 | 0.00 | 0.28 | 0.00 | 54 | 1012.3 |
| 20260830135100 | 79 | 272 | 2.0 | 14.0 | 0.00 | 0.28 | 0.00 | 53 | 1012.3 |
| 20260830134548 | 80 | 215 | 1.0 | 14.0 | 0.00 | 0.28 | 0.00 | 51 | 1012.3 |
| 20260830134028 | 80 | 199 | 2.0 | 12.0 | 0.00 | 0.28 | 0.00 | 56 | 1012.4 |
| 20260830133541 | 79 | 254 | 4.0 | 13.0 | 0.00 | 0.28 | 0.00 | 54 | 1012.4 |
| 20260830133035 | 79 | 233 | 5.0 | 13.0 | 0.00 | 0.28 | 0.00 | 54 | 1012.5 |
| 20260830132536 | 78 | 234 | 5.0 | 9.0 | 0.00 | 0.28 | 0.00 | 56 | 1012.5 |
| 20260830132046 | 78 | 223 | 1.0 | 9.0 | 0.00 | 0.28 | 0.00 | 55 | 1012.7 |
| 20260830131540 | 78 | 219 | 3.0 | 9.0 | 0.00 | 0.28 | 0.00 | 54 | 1012.8 |
| 20260830131030 | 78 | 207 | 3.0 | 10.0 | 0.00 | 0.28 | 0.00 | 53 | 1012.7 |
| 20260830130553 | 79 | 221 | 4.0 | 10.0 | 0.00 | 0.28 | 0.00 | 52 | 1012.8 |
| 20260830130040 | 79 | 229 | 2.0 | 10.0 | 0.00 | 0.28 | 0.00 | 54 | 1012.8 |
| 20260830125530 | 80 | 213 | 5.0 | 10.0 | 0.00 | 0.28 | 0.00 | 51 | 1012.9 |
| 20260830125041 | 80 | 165 | 4.0 | 13.0 | 0.00 | 0.28 | 0.00 | 51 | 1012.8 |
| 20260830124529 | 80 | 251 | 3.0 | 13.0 | 0.00 | 0.28 | 0.00 | 52 | 1012.9 |
| 20260830124034 | 80 | 198 | 3.0 | 11.0 | 0.00 | 0.28 | 0.00 | 54 | 1012.9 |
| 20260830123543 | 79 | 288 | 3.0 | 11.0 | 0.00 | 0.28 | 0.00 | 54 | 1012.8 |
| 20260830123037 | 79 | 232 | 3.0 | 13.0 | 0.00 | 0.28 | 0.00 | 55 | 1012.9 |
| 20260830122529 | 79 | 252 | 6.0 | 15.0 | 0.00 | 0.28 | 0.00 | 53 | 1013.0 |
| 20260830122033 | 79 | 265 | 7.0 | 15.0 | 0.00 | 0.28 | 0.00 | 55 | 1013.0 |
| 20260830121541 | 78 | 225 | 2.0 | 8.0 | 0.00 | 0.28 | 0.00 | 57 | 1013.1 |
| 20260830121032 | 78 | 222 | 4.0 | 8.0 | 0.00 | 0.28 | 0.00 | 58 | 1013.1 |
| 20260830120528 | 77 | 214 | 3.0 | 8.0 | 0.00 | 0.28 | 0.00 | 59 | 1013.1 |
| 20260830120048 | 77 | 250 | 2.0 | 9.0 | 0.00 | 0.28 | 0.00 | 60 | 1013.2 |
| 20260830115542 | 77 | 207 | 4.0 | 10.0 | 0.00 | 0.28 | 0.00 | 60 | 1013.2 |
| 20260830115032 | 77 | 215 | 4.0 | 9.0 | 0.00 | 0.28 | 0.00 | 60 | 1013.3 |
| 20260830114546 | 76 | 231 | 2.0 | 10.0 | 0.00 | 0.28 | 0.00 | 61 | 1013.3 |
| 20260830114037 | 76 | 215 | 5.0 | 15.0 | 0.00 | 0.28 | 0.00 | 61 | 1013.4 |
| 20260830113536 | 76 | 218 | 3.0 | 15.0 | 0.00 | 0.28 | 0.00 | 61 | 1013.4 |
| 20260830113029 | 77 | 267 | 1.0 | 7.0 | 0.00 | 0.28 | 0.00 | 60 | 1013.4 |
| 20260830112540 | 76 | 181 | 4.0 | 7.0 | 0.00 | 0.28 | 0.00 | 63 | 1013.3 |
| 20260830112030 | 76 | 256 | 1.0 | 7.0 | 0.00 | 0.28 | 0.00 | 63 | 1013.4 |
| 20260830111546 | 76 | 239 | 2.0 | 9.0 | 0.00 | 0.28 | 0.00 | 63 | 1013.4 |
| 20260830111042 | 76 | 289 | 3.0 | 11.0 | 0.00 | 0.28 | 0.00 | 63 | 1013.5 |
| 20260830110555 | 75 | 225 | 3.0 | 11.0 | 0.00 | 0.28 | 0.00 | 64 | 1013.6 |
| 20260830110039 | 75 | 184 | 2.0 | 10.0 | 0.00 | 0.28 | 0.00 | 65 | 1013.6 |
| 20260830105547 | 74 | 294 | 3.0 | 10.0 | 0.00 | 0.28 | 0.00 | 67 | 1013.6 |
| 20260830105035 | 74 | 280 | 4.0 | 10.0 | 0.00 | 0.28 | 0.00 | 65 | 1013.7 |
| 20260830104547 | 74 | 230 | 4.0 | 10.0 | 0.00 | 0.28 | 0.00 | 65 | 1013.8 |
| 20260830104040 | 74 | 250 | 1.0 | 13.0 | 0.00 | 0.28 | 0.00 | 67 | 1013.8 |
| 20260830103530 | 74 | 224 | 1.0 | 13.0 | 0.00 | 0.28 | 0.00 | 68 | 1013.9 |
| 20260830103101 | 73 | 261 | 4.0 | 10.0 | 0.00 | 0.28 | 0.00 | 68 | 1013.8 |
| 20260830102529 | 73 | 272 | 3.0 | 12.0 | 0.00 | 0.28 | 0.00 | 68 | 1013.9 |
| 20260830102045 | 73 | 302 | 3.0 | 8.0 | 0.00 | 0.28 | 0.00 | 68 | 1013.9 |
| 20260830101536 | 73 | 235 | 2.0 | 11.0 | 0.00 | 0.28 | 0.00 | 70 | 1014.0 |
| 20260830101028 | 72 | 234 | 3.0 | 11.0 | 0.00 | 0.28 | 0.00 | 70 | 1014.0 |
| 20260830100603 | 71 | 223 | 3.0 | 10.0 | 0.00 | 0.28 | 0.00 | 71 | 1014.2 |
| 20260830100029 | 71 | 231 | 3.0 | 9.0 | 0.00 | 0.28 | 0.00 | 71 | 1014.3 |
| 20260830095541 | 71 | 290 | 3.0 | 10.0 | 0.00 | 0.28 | 0.00 | 71 | 1014.3 |
| 20260830095031 | 71 | 221 | 2.0 | 10.0 | 0.00 | 0.28 | 0.00 | 73 | 1014.3 |
| 20260830094539 | 71 | 223 | 2.0 | 9.0 | 0.00 | 0.28 | 0.00 | 73 | 1014.3 |
| 20260830094105 | 71 | 270 | 4.0 | 9.0 | 0.00 | 0.28 | 0.00 | 72 | 1014.4 |
| 20260830093535 | 72 | 258 | 4.0 | 9.0 | 0.00 | 0.28 | 0.00 | 72 | 1014.4 |
| 20260830093027 | 71 | 267 | 4.0 | 9.0 | 0.00 | 0.28 | 0.00 | 74 | 1014.2 |
| 20260830092537 | 71 | 244 | 2.0 | 6.0 | 0.00 | 0.28 | 0.00 | 75 | 1014.2 |
| 20260830092050 | 70 | 267 | 1.0 | 12.0 | 0.00 | 0.28 | 0.00 | 76 | 1014.3 |
| 20260830091539 | 69 | 283 | 2.0 | 12.0 | 0.00 | 0.28 | 0.00 | 76 | 1014.3 |
| 20260830091032 | 70 | 207 | 3.0 | 8.0 | 0.00 | 0.28 | 0.00 | 77 | 1014.3 |
| 20260830090545 | 69 | 231 | 1.0 | 7.0 | 0.00 | 0.28 | 0.00 | 78 | 1014.3 |
| 20260830090032 | 69 | 240 | 2.0 | 9.0 | 0.00 | 0.28 | 0.00 | 77 | 1014.4 |
| 20260830085608 | 69 | 229 | 2.0 | 9.0 | 0.00 | 0.28 | 0.00 | 78 | 1014.3 |
| 20260830085038 | 69 | 287 | 2.0 | 7.0 | 0.00 | 0.28 | 0.00 | 79 | 1014.3 |
| 20260830084528 | 69 | 228 | 3.0 | 7.0 | 0.00 | 0.28 | 0.00 | 80 | 1014.3 |
| 20260830084100 | 69 | 257 | 2.0 | 11.0 | 0.00 | 0.28 | 0.00 | 81 | 1014.3 |
| 20260830083602 | 69 | 271 | 3.0 | 7.0 | 0.00 | 0.28 | 0.00 | 82 | 1014.3 |
| 20260830083033 | 69 | 244 | 1.0 | 7.0 | 0.00 | 0.28 | 0.00 | 83 | 1014.3 |
| 20260830082542 | 69 | 213 | 3.0 | 7.0 | 0.00 | 0.28 | 0.00 | 82 | 1014.3 |
| 20260830082038 | 69 | 259 | 2.0 | 7.0 | 0.00 | 0.28 | 0.00 | 82 | 1014.3 |
| 20260830081529 | 69 | 238 | 3.0 | 8.0 | 0.00 | 0.28 | 0.00 | 84 | 1014.3 |
| 20260830081023 | 68 | 205 | 1.0 | 7.0 | 0.00 | 0.28 | 0.00 | 84 | 1014.3 |
| 20260830080539 | 68 | 209 | 1.0 | 7.0 | 0.00 | 0.28 | 0.00 | 85 | 1014.3 |
| 20260830080026 | 68 | 231 | 1.0 | 9.0 | 0.00 | 0.28 | 0.00 | 85 | 1014.3 |
| 20260830075542 | 68 | 214 | 2.0 | 9.0 | 0.00 | 0.28 | 0.00 | 88 | 1014.3 |
| 20260830075034 | 67 | 198 | 2.0 | 9.0 | 0.00 | 0.28 | 0.00 | 88 | 1014.3 |
| 20260830074542 | 67 | 207 | 1.0 | 4.0 | 0.00 | 0.28 | 0.00 | 90 | 1014.3 |
| 20260830074030 | 67 | 223 | 1.0 | 6.0 | 0.00 | 0.28 | 0.00 | 89 | 1014.3 |
| 20260830073546 | 66 | 231 | 2.0 | 6.0 | 0.00 | 0.28 | 0.00 | 90 | 1014.3 |
| 20260830073042 | 66 | 227 | 1.0 | 4.0 | 0.00 | 0.28 | 0.00 | 91 | 1014.3 |
| 20260830072557 | 66 | 196 | 2.0 | 4.0 | 0.00 | 0.28 | 0.00 | 92 | 1014.2 |
| 20260830072026 | 66 | 215 | 1.0 | 4.0 | 0.00 | 0.28 | 0.00 | 93 | 1014.3 |
| 20260830071541 | 65 | 220 | 1.0 | 4.0 | 0.00 | 0.28 | 0.00 | 93 | 1014.2 |
| 20260830071053 | 65 | 209 | 1.0 | 3.0 | 0.00 | 0.28 | 0.00 | 93 | 1014.2 |
| 20260830070543 | 65 | 250 | 1.0 | 3.0 | 0.00 | 0.28 | 0.00 | 93 | 1014.3 |
| 20260830070032 | 65 | 219 | 1.0 | 3.0 | 0.00 | 0.28 | 0.00 | 94 | 1014.3 |
| 20260830065544 | 64 | 232 | 1.0 | 4.0 | 0.00 | 0.28 | 0.00 | 94 | 1014.3 |
| 20260830065039 | 64 | 214 | 1.0 | 4.0 | 0.00 | 0.28 | 0.00 | 94 | 1014.3 |
| 20260830064533 | 64 | 199 | 1.0 | 4.0 | 0.00 | 0.28 | 0.00 | 95 | 1014.2 |
| 20260830064026 | 64 | 204 | 1.0 | 4.0 | 0.00 | 0.28 | 0.00 | 95 | 1014.2 |
| 20260830063537 | 63 | 216 | 2.0 | 5.0 | 0.00 | 0.28 | 0.00 | 95 | 1014.2 |
| 20260830063031 | 63 | 219 | 1.0 | 4.0 | 0.00 | 0.28 | 0.00 | 95 | 1014.2 |
| 20260830062541 | 63 | 213 | 1.0 | 4.0 | 0.00 | 0.28 | 0.00 | 96 | 1014.1 |
| 20260830062034 | 63 | 206 | 1.0 | 3.0 | 0.00 | 0.28 | 0.00 | 96 | 1014.1 |
| 20260830061546 | 62 | 198 | 1.0 | 2.0 | 0.00 | 0.28 | 0.00 | 96 | 1014.1 |
| 20260830061032 | 62 | 204 | 1.0 | 3.0 | 0.00 | 0.28 | 0.00 | 96 | 1014.0 |